Tracking 29487 objects as of 11-Sep-2024
HD Live streaming from Space Station
objects crossing your sky now

THOR ABLESTAR DEB

Track THOR ABLESTAR DEB now!
10-day predictions


NORAD ID: 6747
Int'l Code: 1961-015KM
Perigee: 812.5 km
Apogee: 1,029.4 km
Inclination: 66.6 °
Period: 103.3 minutes
Semi major axis: 7291 km
RCS: 0.0083 m2 (small)
Launch date: June 29, 1961
Source: United States (US)
Launch site: AIR FORCE EASTERN TEST RANGE (AFETR)

Note: This is SATELLITE DEBRIS
Your satellite tracking list
Your tracking list is empty




NASA's NSSDC Master Catalog

Two Line Element Set (TLE):
1  6747U 61015KM  24252.55207222  .00001413  00000-0  10239-2 0  9993
2  6747  66.6008 309.1939 0148730 275.7447  82.6691 13.94238901201594
Source of the keplerian elements: AFSPC